Date,TemperatureHighF,TemperatureAvgF,TemperatureLowF,DewpointHighF,DewpointAvgF,DewpointLowF,HumidityHigh,HumidityAvg,HumidityLow,PressureMaxIn,PressureMinIn,WindSpeedMaxMPH,WindSpeedAvgMPH,GustSpeedMaxMPH,PrecipitationSumIn
2013-9-1,76,72,70,74,72,70,100,98,93,29.86,29.79,9,1,9,0.23
2013-9-2,81,73,71,76,73,71,100,98,86,29.85,29.69,8,0,10,0.07
2013-9-3,80,71,66,76,70,65,100,98,81,29.78,29.65,9,0,10,0.02
2013-9-4,78,67,59,67,63,59,100,88,63,29.89,29.76,6,0,7,0.03
2013-9-5,70,62,52,68,60,51,100,94,82,30.07,29.84,7,0,7,0.01
2013-9-6,69,57,49,56,52,48,99,85,58,30.19,30.07,6,0,6,0.02
2013-9-7,72,61,48,59,55,48,100,81,58,30.08,29.85,9,1,9,0.00
2013-9-8,76,66,54,67,59,45,98,78,58,30.04,29.71,9,1,9,0.01
2013-9-9,69,57,47,54,50,45,97,77,51,30.21,30.03,6,0,8,0.01
2013-9-10,73,65,55,68,62,54,97,89,74,30.16,30.03,12,1,13,0.01
2013-9-11,86,75,69,78,72,68,99,91,74,30.07,29.96,9,1,9,0.00
2013-9-12,81,73,69,74,71,68,99,92,80,29.99,29.67,15,1,15,0.01
2013-9-13,76,70,61,72,68,60,100,94,83,29.69,29.53,7,0,11,0.61
2013-9-14,70,62,54,62,58,52,96,87,70,30.01,29.69,3,0,4,0.00
2013-9-15,71,59,51,57,53,50,97,83,58,30.13,30.01,6,0,6,0.00
2013-9-16,63,59,54,60,56,47,99,90,72,30.15,29.99,5,0,5,0.01
2013-9-17,58,52,41,48,44,40,95,74,57,30.35,30.15,14,1,14,0.00
2013-9-18,73,56,40,53,47,39,97,75,41,30.30,30.12,4,0,4,0.00
2013-9-19,76,62,52,60,56,51,98,82,48,30.13,30.02,5,0,5,0.00
2013-9-20,80,63,51,63,56,50,100,82,47,30.06,29.99,6,0,6,0.00
2013-9-21,76,65,54,67,62,54,100,90,67,30.02,29.74,14,1,14,0.01
2013-9-22,71,65,52,68,62,49,99,90,78,29.76,29.62,12,1,15,0.23
2013-9-23,64,53,44,51,47,42,95,81,57,29.95,29.76,5,0,6,0.00
2013-9-24,64,52,42,51,46,40,94,82,60,29.95,29.79,4,0,4,0.00
2013-9-25,64,54,45,53,49,44,98,84,59,29.94,29.85,6,0,7,0.00
2013-9-26,62,55,50,52,50,48,96,85,69,30.07,29.94,7,0,8,0.00
2013-9-27,62,56,48,56,53,47,97,89,77,30.22,30.07,10,0,10,0.00
2013-9-28,69,57,46,61,54,46,100,90,73,30.28,30.21,5,0,6,0.00
2013-9-29,68,56,44,57,52,44,100,89,67,30.23,30.06,5,0,5,0.00
2013-9-30,65,58,50,59,56,49,99,92,79,30.06,29.93,7,0,7,0.00